Regional Weather Roundup
Issued by NWS Green Bay, WI

Home | Current Version | Previous Version | Text Only | Print | Product List | Glossary On
Versions: 1 2 3 4 5 6 7 8 9 10 11 12 13 14 15 16 17 18 19 20 21 22 23 24 25 26 27 28 29 30 31 32 33 34 35 36 37 38 39 40 41 42 43 44 45 46 47 48 49 50
000
ASUS43 KGRB 210711
RWRGRB

NORTH-CENTRAL AND NORTHEAST WISCONSIN REGIONAL WEATHER ROUNDUP
NATIONAL WEATHER SERVICE GREEN BAY WI
200 AM CDT THU SEP 21 2017

WIZ005-009-010>012-018-019-210800-
NORTH CENTRAL WISCONSIN

CITY           SKY/WX    TMP DP  RH WIND       PRES   REMARKS
IRONWOOD       FOG       46  45  93 W5        30.01F VSB 1
MANITOWISH WTR FOG       49  49 100 CALM      30.01S VSB 1/2
ARBOR VITAE    CLEAR     57  56  95 CALM      30.01R
EAGLE RIVER    MOCLDY    56  56 100 CALM      30.01R FOG
LAND O LAKES   CLEAR     54  53  97 NW3       30.02S
RHINELANDER    CLEAR     60  60 100 CALM      30.01R
PHILLIPS       CLEAR     49  49 100 CALM      30.01R FOG
ANTIGO         FOG       64  64 100 CALM      29.98S VSB 1/4
TOMAHAWK         N/A     56  55  97 CALM      30.01R
MERRILL        NOT AVBL
$$

WIZ013-073-210800-
NORTHEAST WISCONSIN

CITY           SKY/WX    TMP DP  RH WIND       PRES   REMARKS
IRON MOUNTAIN  CLOUDY    65  62  90 NW6       29.96R
MARINETTE      CLOUDY    67  67 100 CALM      29.94F FOG
OCONTO         MOCLDY    67  66  97 N6        29.94R
$$

WIZ017-030-035>037-045-210800-
CENTRAL WISCONSIN

CITY           SKY/WX    TMP DP  RH WIND       PRES   REMARKS
MEDFORD        FOG       53  53  99 CALM      30.00R VSB 1/2
WAUSAU         CLOUDY    62  61  96 NW6       29.96R
MOSINEE        CLOUDY    63  63 100 CALM      29.99R
MARSHFIELD     CLEAR     59  57  93 NW5       29.98R
WISC RAPIDS    FOG       62  62 100 W3        29.98R VSB 1/4
STEVENS POINT  FOG       64  64 100 CALM      29.97R VSB 1/4
WAUPACA        MOCLDY    67  67  98 CALM      29.96R FOG
SHAWANO        CLOUDY    65  63  92 CALM      29.95R FOG
CLINTONVILLE   NOT AVBL
WAUTOMA        CLOUDY    68  66  94 N3        29.96R FOG
$$

WIZ038-039-048-051-210800-
FOX VALLEY

CITY           SKY/WX    TMP DP  RH WIND       PRES   REMARKS
NWS GREEN BAY  MOCLDY    66  66 100 NW3       29.95R
APPLETON       CLOUDY    64  64 100 NW5       29.94R
OSHKOSH        PTCLDY    69  67  93 SW3       29.93R
FOND DU LAC    CLOUDY    70  66  87 S8        29.93S
$$

WIZ022-050-052-210800-
EAST CENTRAL WISCONSIN

CITY           SKY/WX    TMP DP  RH WIND       PRES   REMARKS
EPHRAIM        FAIR      68  67  95 NW5       29.93S
WASHINGTON ISL FAIR      65  64  98 CALM      29.93F FOG
STURGEON BAY   CLOUDY    69  67  93 NW7       29.94S
MANITOWOC      CLOUDY    71  66  84 W5        29.91F
SHEBOYGAN      CLOUDY    69  69 100 SW8       29.92F
$$

LMZ563-521-522-541>543-210800-
LAKESHORE

STATION/POSITION TIME  TEMP    WIND        PRES    VSBY  WAVE
                       AIR SEA DIR/SP/G                  HT/PER
                 (UTC) (F)     (DEG/KT/KT) (MB)    (MI)  (FT/S)
SHEBOYGAN LKSHOR 0700   75     190/ 14/ 14 1012.2F
KEWAUNEE LKSHORE 0648   69     270/  3/  4 1012.5R
NORTHPORT PIER   0640   69     320/  5/  5 1013.2S
N MID LAKE BUOY  0650   68 65  210/  6/  8 1014.6R         3/ 6
S GREEN BAY BUOY 0700   68 66  320/  2/  2 1013.9
SISTER BAY LKSHO 0704   67      10/  6/  6   N/A
MENOMINEE LKSHOR 0648   69     310/  3/  6 1013.2R
$$




USA.gov is the U.S. government's official web portal to all federal, state and local government web resources and services.